Dewpoint
64 62 61 60 58 55 52 50 51 50 52 52 51 50 50 50 50 50 54 58 58 56 56 56 53 54 52 52 52 50 52 49 49 50 49 49 48 49 47 48 48 48 46
64 62 61 60 56 53 52 50 48 49 49 51 50 49 49 48 49 49 50 53 55 56 55 54 53 53 52 52 51 49 50 50 50 48 49 48 47 46 47 47 47 47 46
64 63 61 59 55 54 54 52 49 48 46 46 48 46 45 46 46 47 46 47 49 53 54 57 53 52 52 51 51 49 50 50 49 48 48 48 48 48 47 46 46 45 46
64 63 61 58 56 55 54 51 48 45 43 41 41 40 41 42 44 44 42 41 43 44 52 54 54 53 53 51 50 52 51 48 49 48 48 46 45 45 46 44 45 45 44
64 63 62 59 58 55 55 52 48 45 43 42 41 41 41 40 40 39 42 42 43 41 44 51 53 53 52 52 52 50 49 49 48 48 47 45 46 46 44 43 43 43 42
64 63 61 60 57 55 55 52 50 47 44 43 39 41 43 42 42 41 40 37 40 39 42 45 46 47 52 51 51 51 49 48 48 47 46 45 46 44 42 43 42 42 43
64 63 61 58 57 56 56 55 51 49 45 45 43 43 44 45 44 42 41 39 39 37 39 37 41 42 45 49 50 49 49 49 48 47 43 45 43 42 43 42 42 42 42
65 63 60 59 57 55 56 54 53 48 46 46 43 42 41 42 43 43 43 42 43 37 36 38 42 44 43 43 46 47 46 47 46 44 45 44 42 41 41 41 41 42 42
65 63 60 59 59 58 55 54 52 51 47 47 47 43 41 37 41 43 45 43 45 41 39 38 39 40 43 42 44 45 45 46 45 41 43 40 40 41 41 41 41 41 41
65 64 60 58 58 56 54 53 52 51 51 47 47 45 49 45 39 40 43 44 45 44 43 39 39 39 40 40 44 44 43 43 42 39 41 39 39 40 41 40 40 40 40
64 63 61 59 57 56 56 54 53 51 51 50 48 46 48 45 46 41 39 41 43 43 43 42 40 40 39 40 42 42 42 42 41 40 39 40 40 39 39 39 39 39 39
64 64 60 59 58 57 55 54 53 52 54 52 49 46 45 44 44 44 43 42 41 42 43 42 43 40 39 37 37 43 41 42 41 40 39 40 39 39 39 38 38 38 38
63 63 61 58 57 57 56 56 52 53 54 52 52 47 46 46 48 46 45 42 41 42 43 44 43 41 38 39 38 42 41 42 41 40 40 39 39 38 37 37 36 36 36
63 64 62 61 59 59 57 56 52 53 54 54 54 51 46 48 50 48 46 44 43 42 43 44 44 42 41 40 42 42 40 42 42 40 40 39 38 37 36 35 34 34 34
62 63 64 62 60 59 58 57 53 54 55 56 55 54 48 48 52 50 49 48 45 43 42 45 43 44 42 41 41 39 40 41 42 41 40 39 38 37 35 35 34 33 32
62 64 63 61 60 60 59 57 55 54 56 55 53 53 51 47 51 51 50 49 49 47 43 45 44 44 44 39 42 41 41 41 41 41 41 40 39 37 36 35 34 33 32
63 62 62 61 61 61 60 58 57 55 55 55 54 53 51 50 47 49 50 49 49 49 46 45 43 45 46 44 41 42 42 39 38 41 40 40 40 39 37 35 34 33 33
63 63 62 62 61 61 60 59 57 55 55 54 54 52 51 48 51 50 48 50 51 51 48 47 45 43 45 46 44 44 40 35 36 40 40 40 40 39 39 38 36 35 34
62 63 62 61 61 62 60 59 58 57 56 55 54 53 51 52 51 50 50 49 51 48 49 48 46 44 44 44 44 44 44 42 35 41 40 40 40 39 39 38 37 37 35
61 62 62 61 62 61 60 59 57 57 56 55 56 55 52 52 52 52 49 50 50 50 49 47 46 44 43 44 44 43 43 43 40 34 37 36 37 39 39 39 38 38 37
61 61 62 61 62 62 60 59 57 58 57 56 56 53 55 53 47 50 48 50 50 50 48 47 46 44 43 43 43 42 41 41 42 41 38 38 37 37 38 39 38 39 38
60 60 60 61 61 59 50 48 55 58 57 56 55 55 55 49 48 42 42 42 48 50 50 48 46 43 44 43 42 41 42 41 41 42 41 38 38 38 38 39 38 38 38
58 58 60 61 61 61 45 46 46 58 58 57 56 56 54 50 49 48 41 38 40 41 43 50 47 45 42 43 43 42 42 41 39 40 41 40 39 38 38 34 39 39 38
56 57 59 60 60 59 44 44 44 58 58 58 57 57 55 52 50 50 49 45 44 45 45 43 46 44 42 42 44 42 42 42 41 39 41 41 42 42 39 39 39 39 39
55 56 57 59 59 58 43 43 46 56 58 57 56 56 54 53 46 43 50 49 47 46 40 39 38 37 37 38 40 40 46 45 43 44 44 43 45 44 45 47 41 39 38
54 55 56 57 54 58 43 42 47 54 56 55 55 55 44 52 41 40 49 50 49 49 45 39 39 38 37 39 37 42 41 46 45 44 48 44 44 44 41 45 45 43 41
Lifted_Index
2 3 3 3 4 5 6 7 8 8 8 9 9 10 10 10 10 10 9 9 9 8 8 8 9 9 9 9 9 9 9 9 10 10 10 10 10 10 10 10 10 10 10
2 2 3 3 4 5 6 7 8 9 9 9 10 10 11 11 11 10 10 10 10 9 8 8 9 9 9 9 10 10 9 9 10 10 10 10 10 10 10 10 10 10 10
1 2 2 3 4 5 6 7 8 9 10 11 11 12 12 13 12 12 11 11 11 10 9 9 8 9 9 9 10 10 10 10 10 10 10 11 11 11 11 11 11 11 11
1 2 2 3 4 5 5 6 8 10 11 12 13 13 14 14 14 13 13 13 12 12 11 9 9 9 9 9 9 10 10 10 10 11 11 11 11 11 11 11 11 11 11
1 1 2 3 4 5 5 6 7 9 11 12 13 13 14 14 14 14 14 14 14 13 12 11 10 9 9 9 9 9 10 10 11 11 11 12 12 12 12 12 12 12 12
1 1 2 3 4 4 4 5 6 8 10 12 13 13 13 14 14 14 14 14 15 14 13 12 11 10 10 10 9 10 10 11 11 11 12 12 12 12 12 13 13 13 12
1 1 2 2 3 3 3 4 5 6 8 11 12 13 13 13 13 13 14 14 15 15 15 14 13 11 11 11 10 10 11 11 11 12 12 12 12 13 13 13 13 13 13
0 1 1 1 2 2 3 3 3 4 6 9 11 12 12 12 12 13 13 13 14 15 15 15 14 13 12 12 12 12 12 12 12 13 13 13 13 13 13 13 13 13 13
-0 0 1 1 1 2 2 2 3 3 5 7 9 11 11 11 12 12 12 13 13 14 15 15 15 14 13 13 13 14 14 13 13 14 14 14 13 13 13 13 14 14 14
-0 0 0 1 1 1 2 1 2 3 4 5 8 9 10 10 11 11 12 12 13 13 14 14 15 15 14 14 14 15 15 15 15 15 14 14 14 14 14 14 14 14 14
-0 -0 0 0 0 1 1 1 1 2 3 5 6 9 10 10 10 10 10 11 12 13 13 14 14 14 15 15 15 16 16 16 16 16 15 15 14 14 14 14 15 15 15
-0 -0 -0 -0 0 0 1 1 1 2 3 4 6 8 10 10 9 9 9 10 11 12 13 13 14 14 14 15 15 16 17 17 17 17 16 16 15 15 15 15 15 15 15
-0 -0 -1 -1 -0 0 1 1 1 2 3 4 6 8 9 9 8 8 9 9 10 11 12 12 13 14 14 15 15 17 18 18 18 18 17 17 17 17 17 17 16 16 16
-1 -1 -1 -1 -1 -0 0 1 1 1 2 4 5 7 9 9 8 8 8 9 9 10 11 11 12 13 14 14 15 16 17 18 18 18 18 18 18 18 18 18 18 18 17
-1 -1 -1 -0 -0 0 0 0 0 1 2 3 5 7 9 8 8 7 8 8 8 8 9 10 11 12 13 14 14 15 16 17 18 19 19 19 19 19 19 19 19 19 18
-2 -1 -0 -0 -0 0 0 0 0 1 2 3 4 6 8 8 8 8 8 8 7 7 8 8 10 11 13 13 14 14 15 17 18 18 19 19 19 19 19 19 19 19 19
-2 -1 -0 -0 -0 0 0 0 0 0 1 2 4 6 7 8 8 8 8 8 7 7 7 8 9 11 12 13 13 13 14 16 17 17 18 18 19 19 19 19 19 19 19
-2 -1 -1 -0 -1 -0 -0 -0 0 0 1 2 4 5 6 7 8 8 8 8 7 7 8 8 9 10 12 12 13 13 14 15 16 17 17 18 18 18 18 18 18 18 19
-1 -1 -1 -1 -1 -0 -0 -0 0 0 0 1 3 4 5 5 6 7 8 8 7 7 8 8 9 10 11 12 12 13 13 14 15 16 17 17 17 17 17 17 17 18 18
-1 -1 -0 -0 -0 -0 -0 0 1 0 -0 1 2 3 4 4 5 6 7 8 8 8 8 8 9 10 11 12 12 12 13 13 14 15 16 16 17 17 17 17 17 17 17
-0 0 0 -0 -0 -0 -0 0 1 0 -0 0 2 3 3 4 4 5 6 8 8 8 8 8 9 10 11 12 12 12 12 13 13 14 14 15 16 16 16 16 16 16 16
1 1 1 0 -0 -0 -0 0 1 0 0 1 2 3 3 3 4 5 6 8 8 8 8 8 9 10 11 11 12 12 12 12 13 13 13 14 14 14 14 15 15 16 16
2 2 1 1 0 0 0 0 1 1 1 1 2 3 3 3 4 5 7 8 8 7 7 8 9 10 11 11 11 12 12 12 12 12 13 13 13 13 13 14 15 15 16
3 3 2 1 1 0 0 0 1 2 2 1 2 2 3 3 4 5 7 7 7 7 7 8 9 11 12 12 12 12 12 12 12 12 13 13 13 13 13 13 14 15 15
3 3 3 2 1 1 0 1 2 3 2 2 2 2 2 3 3 5 6 7 7 7 7 8 10 12 13 13 13 13 12 12 12 12 13 13 13 13 13 13 14 15 15
3 4 3 2 1 1 1 1 2 3 3 2 2 2 2 2 3 4 6 6 7 6 7 8 11 13 14 15 14 14 12 12 12 12 12 13 13 13 13 13 14 15 15